AVA12B TJPS-MDPP

Flight info

Callsign AVA12B
Flight time 0h 44m
Altitude 34000
Route KATOK
Aircraft A320/M-SDE3FGHIRWY/LB1

Departure

Time 2026-04-21 17:08
Airport Mercedita International Airport (TJPS)

Arrival

Time 2026-04-21 17:52
Airport Gregorio Luperon International Airport (MDPP)
Time Latitude Longitude Altitude Speed Heading
2026-04-21 16:50 18.01036 -66.56273 36 ft 0 kts 319°
2026-04-21 17:03 18.01034 -66.56271 35 ft 2 kts 319°
2026-04-21 17:03 18.01024 -66.56262 39 ft 2 kts 320°
2026-04-21 17:03 18.01015 -66.56254 39 ft 2 kts 318°
2026-04-21 17:04 18.01005 -66.56245 39 ft 2 kts 319°
2026-04-21 17:04 18.01003 -66.56243 39 ft 0 kts 326°
2026-04-21 17:04 18.00995 -66.56237 39 ft 2 kts 336°
2026-04-21 17:04 18.00984 -66.56233 39 ft 2 kts 33°
2026-04-21 17:05 18.00983 -66.56234 37 ft 0 kts 26°
2026-04-21 17:05 18.00984 -66.56234 37 ft 1 kts 26°
2026-04-21 17:05 18.00983 -66.56260 37 ft 10 kts 247°
2026-04-21 17:06 18.00978 -66.56376 37 ft 23 kts 288°
2026-04-21 17:06 18.01038 -66.56572 38 ft 33 kts 288°
2026-04-21 17:06 18.01107 -66.56799 38 ft 15 kts 286°
2026-04-21 17:06 18.01056 -66.56845 38 ft 9 kts 204°
2026-04-21 17:07 18.01018 -66.56860 38 ft 7 kts 186°
2026-04-21 17:07 18.00993 -66.56820 38 ft 5 kts 115°
2026-04-21 17:07 18.00925 -66.56595 38 ft 77 kts 107°
2026-04-21 17:07 18.00671 -66.55749 36 ft 160 kts 107°
2026-04-21 17:08 18.00284 -66.54514 623 ft 184 kts 109°
2026-04-21 17:08 17.99879 -66.53243 1710 ft 185 kts 101°
2026-04-21 17:08 17.99937 -66.51849 2462 ft 205 kts 67°
2026-04-21 17:08 18.00881 -66.50696 3168 ft 227 kts 27°
2026-04-21 17:09 18.03902 -66.51334 5349 ft 254 kts 316°
2026-04-21 17:09 18.05005 -66.52853 6140 ft 268 kts 302°
2026-04-21 17:09 18.05901 -66.54597 7040 ft 273 kts 297°
2026-04-21 17:10 18.06737 -66.56409 7975 ft 279 kts 297°
2026-04-21 17:10 18.07619 -66.58301 8493 ft 299 kts 297°
2026-04-21 17:10 18.08604 -66.60320 8938 ft 321 kts 298°
2026-04-21 17:10 18.09693 -66.62455 9324 ft 342 kts 300°
2026-04-21 17:11 18.10879 -66.64712 9611 ft 364 kts 300°
2026-04-21 17:11 18.12158 -66.67103 9849 ft 385 kts 300°
2026-04-21 17:11 18.13508 -66.69598 10268 ft 397 kts 300°
2026-04-21 17:11 18.14884 -66.72135 10963 ft 401 kts 300°
2026-04-21 17:12 18.16251 -66.74662 11625 ft 404 kts 300°
2026-04-21 17:12 18.17645 -66.77243 12262 ft 408 kts 300°
2026-04-21 17:12 18.19052 -66.79854 12887 ft 412 kts 300°
2026-04-21 17:12 18.20468 -66.82485 13481 ft 416 kts 300°
2026-04-21 17:13 18.21897 -66.85145 14051 ft 419 kts 300°
2026-04-21 17:13 18.23340 -66.87828 14614 ft 422 kts 300°
2026-04-21 17:13 18.24791 -66.90528 15146 ft 426 kts 300°
2026-04-21 17:13 18.26252 -66.93250 15678 ft 429 kts 300°
2026-04-21 17:14 18.27727 -66.95998 16166 ft 432 kts 300°
2026-04-21 17:14 18.29209 -66.98762 16677 ft 435 kts 300°
2026-04-21 17:14 18.30704 -67.01546 17159 ft 438 kts 300°
2026-04-21 17:14 18.32207 -67.04349 17736 ft 436 kts 300°
2026-04-21 17:15 18.33671 -67.07086 18672 ft 430 kts 300°
2026-04-21 17:15 18.35163 -67.09872 18792 ft 442 kts 300°
2026-04-21 17:15 18.36687 -67.12717 18984 ft 450 kts 300°
2026-04-21 17:15 18.38231 -67.15601 19358 ft 453 kts 300°
2026-04-21 17:16 18.39785 -67.18506 19749 ft 456 kts 300°
2026-04-21 17:16 18.41345 -67.21423 20112 ft 458 kts 300°
2026-04-21 17:16 18.42912 -67.24353 20482 ft 461 kts 300°
2026-04-21 17:16 18.44489 -67.27302 20820 ft 463 kts 300°
2026-04-21 17:17 18.46072 -67.30264 21140 ft 465 kts 300°
2026-04-21 17:17 18.47659 -67.33242 21464 ft 468 kts 300°
2026-04-21 17:17 18.49254 -67.36241 21782 ft 470 kts 300°
2026-04-21 17:17 18.50856 -67.39251 22091 ft 472 kts 300°
2026-04-21 17:18 18.52410 -67.42164 22386 ft 474 kts 300°
2026-04-21 17:18 18.54030 -67.45200 22685 ft 476 kts 300°
2026-04-21 17:18 18.55656 -67.48251 22974 ft 478 kts 300°
2026-04-21 17:18 18.57287 -67.51313 23250 ft 480 kts 300°
2026-04-21 17:19 18.58922 -67.54387 23511 ft 482 kts 300°
2026-04-21 17:19 18.60567 -67.57478 23773 ft 484 kts 300°
2026-04-21 17:19 18.62193 -67.60538 24034 ft 486 kts 300°
2026-04-21 17:19 18.63848 -67.63652 24207 ft 487 kts 300°
2026-04-21 17:20 18.65505 -67.66774 24248 ft 488 kts 300°
2026-04-21 17:20 18.67159 -67.69896 24249 ft 488 kts 300°
2026-04-21 17:20 18.68813 -67.73020 24252 ft 488 kts 300°
2026-04-21 17:20 18.70467 -67.76144 24247 ft 488 kts 300°
2026-04-21 17:21 18.72123 -67.79270 24247 ft 488 kts 300°
2026-04-21 17:21 18.73780 -67.82400 24249 ft 488 kts 300°
2026-04-21 17:21 18.75433 -67.85525 24248 ft 488 kts 300°
2026-04-21 17:21 18.77084 -67.88652 24247 ft 488 kts 300°
2026-04-21 17:22 18.78181 -67.90725 24247 ft 488 kts 300°
2026-04-21 17:22 18.80392 -67.94906 24247 ft 488 kts 300°
2026-04-21 17:22 18.82045 -67.98038 24247 ft 488 kts 300°
2026-04-21 17:22 18.83806 -68.01095 24246 ft 487 kts 306°
2026-04-21 17:23 18.85761 -68.04024 24250 ft 487 kts 306°
2026-04-21 17:23 18.87712 -68.06952 24247 ft 487 kts 306°
2026-04-21 17:23 18.89656 -68.09877 24249 ft 487 kts 306°
2026-04-21 17:23 18.91604 -68.12813 24247 ft 487 kts 306°
2026-04-21 17:24 18.93544 -68.15744 24247 ft 487 kts 306°
2026-04-21 17:24 18.95483 -68.18676 24247 ft 487 kts 306°
2026-04-21 17:24 18.97421 -68.21609 24251 ft 487 kts 306°
2026-04-21 17:24 18.99360 -68.24541 24247 ft 487 kts 306°
2026-04-21 17:25 19.01280 -68.27439 24252 ft 487 kts 306°
2026-04-21 17:25 19.03227 -68.30373 24249 ft 487 kts 306°
2026-04-21 17:25 19.05173 -68.33302 24248 ft 487 kts 306°
2026-04-21 17:25 19.07144 -68.36274 24247 ft 487 kts 306°
2026-04-21 17:26 19.09088 -68.39208 24247 ft 487 kts 306°
2026-04-21 17:26 19.11027 -68.42141 24247 ft 487 kts 306°
2026-04-21 17:26 19.12945 -68.45044 24249 ft 487 kts 306°
2026-04-21 17:26 19.14884 -68.47981 24247 ft 487 kts 306°
2026-04-21 17:27 19.16823 -68.50921 24247 ft 487 kts 306°
2026-04-21 17:27 19.18758 -68.53858 24247 ft 487 kts 306°
2026-04-21 17:27 19.20694 -68.56798 24248 ft 487 kts 306°
2026-04-21 17:27 19.22002 -68.58784 24247 ft 487 kts 306°
2026-04-21 17:28 19.23941 -68.61724 24247 ft 487 kts 306°
2026-04-21 17:28 19.25878 -68.64663 24247 ft 487 kts 306°
2026-04-21 17:28 19.27815 -68.67603 24247 ft 487 kts 306°
2026-04-21 17:28 19.29751 -68.70545 24247 ft 487 kts 306°
2026-04-21 17:29 19.31684 -68.73487 24247 ft 487 kts 305°
2026-04-21 17:29 19.33615 -68.76432 24249 ft 487 kts 305°
2026-04-21 17:29 19.35548 -68.79380 24247 ft 487 kts 305°
2026-04-21 17:29 19.37480 -68.82328 24250 ft 487 kts 305°
2026-04-21 17:30 19.39411 -68.85273 24247 ft 487 kts 305°
2026-04-21 17:30 19.41345 -68.88221 24251 ft 487 kts 305°
2026-04-21 17:30 19.43283 -68.91175 24247 ft 487 kts 305°
2026-04-21 17:30 19.45192 -68.94085 24251 ft 487 kts 305°
2026-04-21 17:31 19.47126 -68.97040 24247 ft 487 kts 305°
2026-04-21 17:31 19.49056 -68.99991 24247 ft 487 kts 305°
2026-04-21 17:31 19.50985 -69.02943 24247 ft 487 kts 305°
2026-04-21 17:31 19.52913 -69.05893 24247 ft 487 kts 305°
2026-04-21 17:32 19.54847 -69.08848 24247 ft 487 kts 305°
2026-04-21 17:32 19.56775 -69.11800 24247 ft 487 kts 305°
2026-04-21 17:32 19.58703 -69.14757 24247 ft 487 kts 305°
2026-04-21 17:32 19.60632 -69.17716 24247 ft 487 kts 305°
2026-04-21 17:33 19.62558 -69.20669 24250 ft 487 kts 305°
2026-04-21 17:33 19.64486 -69.23621 24250 ft 487 kts 305°
2026-04-21 17:33 19.66423 -69.26582 24247 ft 487 kts 305°
2026-04-21 17:33 19.68357 -69.29542 24247 ft 487 kts 305°
2026-04-21 17:34 19.70286 -69.32499 24247 ft 487 kts 305°
2026-04-21 17:34 19.72213 -69.35463 24247 ft 487 kts 305°
2026-04-21 17:34 19.74137 -69.38424 24249 ft 487 kts 305°
2026-04-21 17:34 19.76060 -69.41384 24247 ft 487 kts 305°
2026-04-21 17:35 19.77983 -69.44342 24247 ft 487 kts 305°
2026-04-21 17:35 19.79912 -69.47311 24200 ft 488 kts 305°
2026-04-21 17:35 19.81832 -69.50268 23844 ft 485 kts 305°
2026-04-21 17:35 19.83739 -69.53209 23520 ft 482 kts 305°
2026-04-21 17:36 19.85572 -69.56132 23223 ft 481 kts 300°
2026-04-21 17:36 19.86878 -69.59387 22942 ft 480 kts 286°
2026-04-21 17:36 19.87407 -69.62880 22681 ft 479 kts 274°
2026-04-21 17:36 19.87583 -69.66413 22412 ft 478 kts 273°
2026-04-21 17:37 19.87733 -69.69934 22167 ft 476 kts 273°
2026-04-21 17:37 19.87863 -69.73440 21934 ft 475 kts 272°
2026-04-21 17:37 19.87984 -69.76944 21713 ft 473 kts 272°
2026-04-21 17:37 19.88108 -69.80430 21483 ft 472 kts 273°
2026-04-21 17:38 19.88240 -69.83910 21255 ft 470 kts 273°
2026-04-21 17:38 19.88377 -69.87375 21025 ft 468 kts 273°
2026-04-21 17:38 19.88514 -69.90827 20784 ft 467 kts 273°
2026-04-21 17:38 19.88653 -69.94273 20546 ft 465 kts 273°
2026-04-21 17:39 19.88789 -69.97702 20316 ft 464 kts 273°
2026-04-21 17:39 19.88921 -70.01079 20091 ft 462 kts 273°
2026-04-21 17:39 19.89054 -70.04534 19871 ft 461 kts 273°
2026-04-21 17:39 19.89185 -70.07929 19660 ft 460 kts 273°
2026-04-21 17:40 19.89311 -70.11277 19452 ft 458 kts 273°
2026-04-21 17:40 19.89438 -70.14650 19094 ft 453 kts 273°
2026-04-21 17:40 19.89563 -70.17975 18334 ft 447 kts 273°
2026-04-21 17:40 19.89683 -70.21255 17560 ft 442 kts 273°
2026-04-21 17:41 19.89802 -70.24502 16783 ft 437 kts 273°
2026-04-21 17:41 19.89919 -70.27712 16007 ft 433 kts 273°
2026-04-21 17:41 19.90035 -70.30889 15233 ft 428 kts 272°
2026-04-21 17:41 19.90151 -70.34034 14475 ft 425 kts 273°
2026-04-21 17:42 19.90269 -70.37165 13696 ft 422 kts 273°
2026-04-21 17:42 19.90386 -70.40266 12919 ft 418 kts 273°
2026-04-21 17:42 19.90499 -70.43337 12166 ft 414 kts 273°
2026-04-21 17:42 19.90610 -70.46375 11380 ft 409 kts 272°
2026-04-21 17:43 19.90719 -70.49380 10602 ft 404 kts 272°
2026-04-21 17:43 19.90823 -70.52350 9826 ft 400 kts 272°
2026-04-21 17:43 19.90924 -70.55290 9071 ft 395 kts 272°
2026-04-21 17:43 19.91023 -70.58186 8475 ft 387 kts 272°
2026-04-21 17:44 19.91118 -70.60974 8248 ft 368 kts 272°
2026-04-21 17:44 19.91208 -70.63622 8022 ft 350 kts 272°
2026-04-21 17:44 19.91298 -70.66122 7816 ft 335 kts 272°
2026-04-21 17:44 19.91388 -70.68549 7597 ft 323 kts 272°
2026-04-21 17:45 19.91429 -70.70896 7370 ft 312 kts 265°
2026-04-21 17:45 19.90838 -70.73081 7133 ft 301 kts 240°
2026-04-21 17:45 19.89533 -70.74747 6897 ft 290 kts 217°
2026-04-21 17:45 19.87777 -70.75713 6604 ft 282 kts 195°
2026-04-21 17:46 19.85898 -70.76223 6304 ft 276 kts 193°
2026-04-21 17:46 19.84079 -70.76704 6005 ft 270 kts 193°
2026-04-21 17:46 19.82247 -70.77188 5704 ft 265 kts 193°
2026-04-21 17:46 19.80503 -70.77653 5400 ft 259 kts 193°
2026-04-21 17:47 19.78776 -70.78115 5107 ft 253 kts 193°
2026-04-21 17:47 19.77079 -70.78571 4816 ft 249 kts 193°
2026-04-21 17:47 19.75410 -70.79020 4517 ft 245 kts 193°
2026-04-21 17:47 19.73774 -70.79456 4230 ft 241 kts 193°
2026-04-21 17:48 19.72671 -70.79666 4024 ft 236 kts 179°
2026-04-21 17:48 19.70760 -70.78818 3619 ft 228 kts 130°
2026-04-21 17:48 19.70118 -70.77322 3318 ft 226 kts 95°
2026-04-21 17:48 19.70364 -70.75689 3053 ft 225 kts 74°
2026-04-21 17:49 19.70819 -70.74137 2982 ft 214 kts 73°
2026-04-21 17:49 19.71251 -70.72675 2986 ft 201 kts 74°
2026-04-21 17:49 19.71664 -70.71273 2767 ft 201 kts 74°
2026-04-21 17:49 19.72083 -70.69848 2470 ft 203 kts 73°
2026-04-21 17:50 19.72501 -70.68409 2162 ft 205 kts 73°
2026-04-21 17:50 19.72913 -70.66984 1909 ft 200 kts 73°
2026-04-21 17:50 19.73326 -70.65581 1598 ft 197 kts 72°
2026-04-21 17:50 19.73728 -70.64236 1304 ft 188 kts 72°
2026-04-21 17:51 19.74111 -70.62934 932 ft 179 kts 73°
2026-04-21 17:51 19.74442 -70.61737 803 ft 159 kts 73°
2026-04-21 17:51 19.74743 -70.60649 544 ft 151 kts 73°
2026-04-21 17:51 19.75039 -70.59618 303 ft 142 kts 72°
2026-04-21 17:52 19.75321 -70.58629 112 ft 139 kts 72°
2026-04-21 17:52 19.75591 -70.57699 25 ft 119 kts 72°
2026-04-21 17:52 19.75785 -70.57030 28 ft 70 kts 73°
2026-04-21 17:52 19.75896 -70.56628 30 ft 46 kts 72°
2026-04-21 17:53 19.75932 -70.56446 29 ft 4 kts 134°
2026-04-21 17:53 19.75848 -70.56418 29 ft 36 kts 162°
2026-04-21 17:53 19.75699 -70.56385 32 ft 12 kts 213°
2026-04-21 17:53 19.75647 -70.56414 37 ft 5 kts 209°
2026-04-21 17:54 19.75635 -70.56421 38 ft 0 kts 209°
2026-04-21 17:54 19.75627 -70.56426 39 ft 6 kts 210°
2026-04-21 17:54 19.75614 -70.56434 40 ft 0 kts 210°